Accueil
METAR-TAF:

METAR-TAF

Aéroports :

Friday Harbor Airport

Friday Harbor, Washington, États-Unis

latitude: 48-31-13N, longitude: 123-01-31W, altitude: 33 m

Observation

Le bulletin a été fait il y a 28 minutes, à 16:53 UTC
Vent 4 kt de nord/nord-est
Température 5°C
Humidité 87%
Pression 1022 hPa
Visibilité: 16.1 km
Ciel clair

METAR: KFHR 191653Z AUTO 02004KT 10SM CLR 05/03 A3018 RMK AO2 SLP218 T00500028

Heure: 09:21 (17:21 UTC)


TAF: absent

Observations et prévisions météorologiques de plus de 4000 aéroports (messages METAR et TAF).

Les stations disponibles sont représentées par des disques jaunes et rouges sur la carte.

Passer la souris dessus pour voir le nom de la station.

Cliquer dessus pour voir les observations et prévisions météorologiques.

Pour changer de carte: cliquez sur les boutons verts avec une croix noire pour zoomer, sur le bouton vert avec un tiret pour effectuer un zoom arrière, ou sur les flèches vertes pour les cartes adjacentes.


METAR-TAF: